ATLAS H R/B, 17998

Orbit data source: Space-Track

ATLAS H R/B, 17998 is space debris in LEO originally from a launch on Fri, 15 May 1987 UTC via an ATLAS H launch vehicle from the Air Force Western Test Range (AFWTR). Debris objects in space refer to the collection of defunct objects orbiting the Earth. Examples of debris include non-operational satellites, rocket bodies, and fragments generated from explosions, collisions, or faulty payload assembly.

Loading next visibility...
Identifier
17998, 1987-043B
Orbit
LEO
Country
Flag of USUS
Related business
Manufacturer
NRL
Mission
Spacecraft
Bus & Motor
MSD-PS, Unknown motor
Mass
63 kg wet, 63 kg dry
Launch date (UTC)
1987-05-15 (39 years ago)
Launch vehicle
ATLAS H
Launch site
Air Force Western Test Range (AFWTR)
Object type
Payload
Rocket body
Debris
Shape & HBR
Cyl, 13.5 m
Radar Cross Section
68.331 m², Medium (>0.1 m² and < 1m²)

Expand to show TLE details & history
Last TLE update: 2 days ago

TLE from 2 days ago
0 ATLAS H R/B
1 17998U 87043B   26171.41047709  .00000585  00000-0  21985-3 0  9991
2 17998  63.3178 223.6449 0702174 117.5212 249.8961 13.51406682351693
Epoch: 2026-06-20T09:51Z
TLE epoch observation values (Epoch: 2026-06-20T09:51:05.220Z)
Latitude
-0.00002°
Longitude
167.24764°
Altitude
1,279.74 km
Speed
7.114 km/s
True Right ascension
14h 54m 34s
True Declination
0° 00' 00"
Sunlit
Object was in full shadow at epoch
Visualization orbit readout
Latitude
Unknown
Longitude
Unknown
Altitude
Unknown
Speed
Unknown
Apparent Right ascension
Unknown
Apparent Declination
Unknown
Sunlit
N/A
Visualization observer readout
Local Sidereal Time
00:39:27
Azimuth
Unknown
Elevation
Unknown
Doppler factor
Unknown
Orbital elements
Apogee altitude
1,588.617 km
Perigee altitude
543.213 km
Semi-major axis
7,444.052 km
Eccentricity
0.07022
Inclination
63.3178°
RAAN
223.6449°
Arg. of periapsis
117.5212°
True anomaly
242.58141°
Mean anomaly
249.8961°
Eccentric anomaly
246.21466°
Mean motion
3.37932 °/min
Orbital period
106.53 mins
BSTAR
0.00021985
Loading maneuver chart data...
Computing Atmospheric mass density...
Loading historical data...
Loading historical data...
Loading historical data...
Loading historical data...
Loading historical data...
Loading historical data...
Loading historical data...

Documentation

Showing up to 5 results
|